Farmingdale, NY

7:36 PM EDT on June 23, 2017 (GMT -0400)
Republic

Weather History for KFRG - March, 2014

Change the Weather History Date:

Wednesday, March 5, 2014

  Actual Average Record
Temperature  
Mean Temperature 29 °F -  
Max Temperature 37 °F 42 °F 53 °F (2008)
Min Temperature 21 °F 28 °F 15 °F (2017)
Degree Days  
Heating Degree Days 36    
Moisture  
Dew Point 12 °F    
Average Humidity 50    
Maximum Humidity 75    
Minimum Humidity 30    
Precipitation  
Precipitation 0.00 in - - ()
Sea Level Pressure  
Sea Level Pressure 30.29 in    
Wind  
Wind Speed 3 mph (NNE)    
Max Wind Speed 15 mph    
Max Gust Speed 22 mph    
Visibility 10 miles    
Events      
Averages and records for this station are not official NWS values.
T = Trace of Precipitation, MM = Missing Value Source: NWS Daily Summary

Daily Weather History Graph

Daily Weather History Graph

Search for Another Location

Airport or City:

Trip Planner

Search our weather history database for the weather conditions in past years. The results will help you decide how hot, cold, wet, or windy it might be!

Date:

Astronomy

Mar. 05, 2014 Rise Set
Actual Time 6:21 AM EST 5:49 PM EST
Civil Twilight 5:54 AM EST 6:16 PM EST
Nautical Twilight 5:22 AM EST 6:48 PM EST
Astronomical Twilight 4:50 AM EST 7:20 PM EST
Moon 8:43 AM EST (3/5) 10:57 PM EST (3/5)
Length of Visible Light 12h 22m
Length of Day
11h 28m
Waxing Crescent, 23% of the Moon is Illuminated
Mar 5
Waxing Crescent
Mar 8
First Quarter
Mar 16
Full
Mar 23
Last Quarter
Mar 30
New

Hourly Weather History & Observations

Time (EST) Temp. Windchill Dew Point Humidity Pressure Visibility Wind Dir Wind Speed Gust Speed Precip Events Conditions
12:53 AM 26.1 °F - 15.1 °F 63% 30.26 in 10.0 mi Calm Calm - N/A   Overcast
1:53 AM 25.0 °F - 16.0 °F 69% 30.25 in 10.0 mi Calm Calm - N/A   Mostly Cloudy
2:53 AM 24.1 °F - 15.1 °F 69% 30.22 in 10.0 mi Calm Calm - N/A   Mostly Cloudy
3:53 AM 21.9 °F - 15.1 °F 75% 30.23 in 10.0 mi Calm Calm - N/A   Overcast
4:53 AM 24.1 °F - 16.0 °F 71% 30.24 in 10.0 mi Calm Calm - N/A   Overcast
5:53 AM 24.1 °F - 17.1 °F 75% 30.24 in 10.0 mi Calm Calm - N/A   Overcast
6:53 AM 25.0 °F - 17.1 °F 72% 30.25 in 10.0 mi Calm Calm - N/A   Overcast
7:53 AM 27.0 °F - 15.1 °F 61% 30.27 in 10.0 mi Calm Calm - N/A   Overcast
8:53 AM 30.0 °F - 12.9 °F 49% 30.27 in 10.0 mi Calm Calm - N/A   Overcast
9:53 AM 32.0 °F 28.7 °F 9.0 °F 38% 30.25 in 10.0 mi East 3.5 mph - N/A   Partly Cloudy
10:53 AM 35.1 °F 30.1 °F 8.1 °F 33% 30.26 in 10.0 mi NNE 5.8 mph - N/A   Overcast
11:53 AM 35.1 °F 32.2 °F 10.9 °F 37% 30.25 in 10.0 mi ENE 3.5 mph - N/A   Overcast
12:53 PM 37.0 °F 31.6 °F 15.1 °F 41% 30.23 in 10.0 mi NNE 6.9 mph - N/A   Mostly Cloudy
1:53 PM 37.0 °F 32.4 °F 8.1 °F 30% 30.22 in 10.0 mi NNE 5.8 mph - N/A   Clear
2:53 PM 36.0 °F 28.0 °F 7.0 °F 30% 30.24 in 10.0 mi North 11.5 mph - N/A   Overcast
3:53 PM 34.0 °F 26.6 °F 7.0 °F 32% 30.26 in 10.0 mi North 9.2 mph - N/A   Overcast
4:53 PM 33.1 °F 27.7 °F 7.0 °F 34% 30.28 in 10.0 mi NE 5.8 mph - N/A   Overcast
5:53 PM 30.9 °F 24.3 °F 8.1 °F 38% 30.29 in 10.0 mi NNE 6.9 mph - N/A   Overcast
6:53 PM 30.0 °F 25.2 °F 9.0 °F 41% 30.32 in 10.0 mi NNE 4.6 mph - N/A   Clear
7:53 PM 28.9 °F 23.9 °F 12.9 °F 51% 30.36 in 10.0 mi North 4.6 mph - N/A   Clear
8:53 PM 28.9 °F 18.6 °F 12.0 °F 49% 30.38 in 10.0 mi North 12.7 mph - N/A   Clear
9:53 PM 28.0 °F 16.5 °F 9.0 °F 45% 30.41 in 10.0 mi North 15.0 mph 21.9 mph N/A   Clear
10:53 PM 27.0 °F 18.0 °F 8.1 °F 45% 30.43 in 10.0 mi North 9.2 mph - N/A   Clear
11:53 PM 25.0 °F 13.6 °F 10.9 °F 55% 30.44 in 10.0 mi NNE 12.7 mph 20.7 mph N/A   Clear